Total_Precipitation_Accumulation
1.96 1.96 2.74 3.89 4.63 4.19 3.79 3.03 2.41 2.07 1.70 1.34 1.09 1.09 1.57 2.12 2.75 3.20 3.13 2.88 2.20 1.90 2.01 2.97 3.80 3.46 3.11 3.07 3.26 3.59 3.45 3.59 3.46 3.27 3.08 2.97 2.83 2.75 2.71 2.45 2.37 2.46 2.29 2.08 2.14 2.35 2.30 2.22 2.28
1.85 2.64 3.65 4.73 4.53 3.79 3.63 2.85 2.39 1.92 1.31 1.04 0.84 0.87 1.11 1.10 1.09 1.69 2.94 3.00 2.05 1.69 1.79 2.46 3.61 3.32 3.19 3.23 3.44 3.56 3.51 3.63 3.38 3.19 2.94 2.80 2.75 2.90 2.96 2.99 2.92 2.73 2.46 2.25 2.17 2.32 2.24 2.00 2.06
2.00 3.32 4.56 4.66 3.61 3.30 3.56 2.82 2.02 1.47 1.00 0.96 0.88 0.80 1.00 1.31 1.39 2.15 3.02 2.59 1.88 1.58 1.71 2.70 3.63 3.35 3.22 3.25 3.39 3.51 3.66 3.70 3.39 3.06 2.77 2.60 2.69 3.13 3.34 3.28 3.07 2.76 2.52 2.27 2.15 2.21 2.21 2.01 1.91
2.47 3.77 4.00 3.60 3.25 2.81 2.59 2.30 1.72 1.65 1.23 0.87 0.80 0.92 0.90 1.33 1.59 2.08 2.29 1.99 1.80 1.77 1.79 2.67 3.59 3.51 3.34 3.25 3.34 3.52 3.59 3.67 3.53 3.16 2.80 2.70 2.74 2.82 2.90 2.99 2.87 2.64 2.45 2.25 2.24 2.17 2.11 2.09 1.97
2.96 3.68 3.74 3.28 3.08 2.74 2.03 1.77 1.60 1.80 1.60 1.06 0.83 1.14 1.36 1.82 1.93 1.95 1.94 1.92 1.69 1.70 1.80 2.36 3.28 3.35 3.23 3.20 3.45 3.64 3.48 3.43 3.38 3.18 2.84 2.77 2.76 2.74 2.84 2.90 2.85 2.65 2.52 2.35 2.30 2.19 2.07 1.96 1.95
3.26 3.30 3.62 3.45 3.24 2.83 2.29 1.86 1.69 1.72 1.52 1.13 1.02 1.28 1.73 2.39 2.41 2.25 1.90 1.91 1.84 1.69 1.70 2.17 2.95 3.20 3.15 3.26 3.48 3.55 3.45 3.32 3.11 2.84 2.67 2.65 2.77 2.76 2.85 2.87 2.75 2.53 2.52 2.38 2.16 2.06 1.95 1.88 1.89
3.15 3.15 3.12 2.87 3.16 3.38 2.65 1.80 1.83 1.72 1.63 1.35 1.03 1.39 1.81 2.58 2.42 2.25 2.04 1.98 2.03 1.90 1.91 2.28 2.71 2.91 3.34 3.53 3.48 3.47 3.45 3.29 2.98 2.63 2.57 2.61 2.75 2.66 2.70 2.77 2.66 2.39 2.31 2.18 1.97 1.83 1.75 1.80 1.87
2.43 2.52 2.47 2.58 3.07 3.25 2.32 1.47 1.35 1.57 1.63 1.14 0.95 1.33 1.78 2.19 2.15 2.22 2.23 2.24 2.10 2.00 2.01 2.16 2.40 2.49 2.82 3.15 3.47 3.53 3.38 3.25 3.04 2.63 2.51 2.59 2.72 2.73 2.69 2.48 2.52 2.46 2.33 2.19 1.95 1.81 1.77 1.83 1.89
2.24 2.66 2.85 2.98 2.89 2.64 1.77 1.49 1.33 1.21 1.28 1.08 0.97 1.09 1.51 1.65 1.81 2.17 2.42 2.37 2.08 1.88 1.82 1.95 2.11 2.21 2.46 2.78 3.07 3.32 3.17 3.05 2.83 2.49 2.39 2.37 2.30 2.14 2.24 2.20 2.65 2.63 2.48 2.31 2.16 2.03 1.92 1.84 1.77
2.36 2.82 2.75 2.33 1.86 1.78 1.52 1.39 1.35 1.29 1.38 1.32 1.20 1.27 1.62 1.83 1.90 2.05 2.15 2.05 1.85 1.88 1.77 1.78 1.93 2.01 2.11 2.30 2.90 2.96 2.47 2.26 2.05 2.17 2.13 2.07 2.08 1.94 1.63 1.90 2.43 2.56 2.54 2.28 2.11 2.07 1.80 1.44 1.30
1.83 2.07 1.79 1.76 1.42 1.27 1.30 1.26 1.17 1.41 1.67 1.36 1.34 1.46 1.80 2.01 1.90 1.90 1.88 1.76 1.68 1.65 1.60 1.62 1.75 1.69 1.66 1.91 2.29 2.49 2.42 2.30 2.04 1.88 1.83 1.94 1.90 1.74 1.55 1.71 1.89 1.89 1.85 1.71 1.67 1.52 1.26 1.15 1.22
1.60 1.50 1.28 1.41 1.24 1.23 1.29 1.18 1.16 1.27 1.44 1.12 1.21 1.45 1.75 1.92 1.86 1.79 1.70 1.66 1.57 1.47 1.41 1.47 1.50 1.44 1.39 1.50 1.65 1.73 1.92 1.95 1.86 1.62 1.43 1.53 1.70 1.65 1.45 1.47 1.55 1.58 1.55 1.63 1.59 1.49 1.34 1.25 1.24
1.77 1.56 1.33 1.28 1.23 1.19 1.18 1.15 1.09 1.12 1.11 1.11 1.23 1.59 1.88 2.08 2.16 2.10 1.79 1.52 1.40 1.43 1.40 1.44 1.39 1.36 1.34 1.42 1.51 1.41 1.60 1.72 1.70 1.64 1.42 1.34 1.40 1.45 1.38 1.25 1.37 1.43 1.46 1.44 1.43 1.38 1.39 1.45 1.41
1.63 1.48 1.43 1.40 1.25 1.11 1.15 1.13 1.09 1.31 1.19 1.21 1.32 1.58 1.71 1.87 1.92 1.81 1.73 1.46 1.28 1.27 1.36 1.40 1.49 1.50 1.35 1.29 1.33 1.32 1.36 1.49 1.45 1.50 1.43 1.37 1.35 1.34 1.35 1.31 1.39 1.47 1.51 1.46 1.38 1.31 1.42 1.46 1.48
1.28 1.55 1.59 1.47 1.30 1.18 1.12 1.39 1.28 1.34 1.29 1.38 1.39 1.40 1.47 1.56 1.63 1.52 1.41 1.23 1.19 1.16 1.17 1.22 1.37 1.43 1.32 1.30 1.32 1.29 1.38 1.45 1.44 1.39 1.30 1.39 1.35 1.32 1.34 1.37 1.40 1.43 1.52 1.58 1.57 1.50 1.51 1.51 1.61
1.43 1.80 2.06 1.64 1.40 1.33 1.42 1.71 1.44 1.41 1.44 1.37 1.32 1.36 1.37 1.38 1.48 1.48 1.41 1.22 1.13 1.07 1.06 1.08 1.05 1.16 1.26 1.35 1.42 1.49 1.52 1.52 1.51 1.39 1.29 1.27 1.25 1.26 1.33 1.35 1.40 1.46 1.45 1.52 1.65 1.67 1.70 1.69 1.75
1.76 1.81 1.78 1.68 1.35 1.36 1.44 1.50 1.37 1.42 1.42 1.30 1.21 1.21 1.17 1.18 1.22 1.25 1.30 1.25 1.16 1.10 1.10 1.15 1.14 1.18 1.29 1.36 1.50 1.59 1.69 1.74 1.79 1.66 1.64 1.54 1.41 1.42 1.51 1.56 1.55 1.56 1.62 1.64 1.57 1.62 1.75 1.85 1.84
1.63 1.33 1.35 1.44 1.27 1.22 1.30 1.20 1.21 1.37 1.38 1.34 1.22 1.14 1.06 1.09 1.08 1.09 1.16 1.21 1.22 1.20 1.20 1.25 1.38 1.43 1.55 1.70 1.94 2.15 2.27 2.34 2.39 2.32 2.20 2.02 1.77 1.69 1.83 1.85 1.73 1.77 1.89 2.00 1.90 1.98 1.89 1.80 1.86
1.02 0.99 1.05 1.01 0.90 1.02 1.02 1.02 1.07 1.13 1.24 1.18 1.05 1.05 1.05 1.06 1.09 1.09 1.08 1.15 1.22 1.24 1.22 1.22 1.38 1.51 1.59 1.81 2.10 2.60 2.87 2.91 2.74 2.70 2.60 2.37 2.12 2.07 2.23 2.23 2.20 2.20 2.21 2.19 2.15 2.37 2.27 1.98 1.88
0.89 0.97 0.97 0.91 0.82 0.88 0.86 0.88 0.85 0.86 0.87 0.89 0.83 0.84 0.95 1.00 1.11 1.08 1.05 1.07 1.09 1.10 1.13 1.31 1.46 1.57 1.63 1.85 2.13 2.48 2.90 2.99 2.90 2.75 2.65 2.52 2.35 2.30 2.32 2.55 2.65 2.58 2.77 2.78 2.56 2.69 2.73 2.34 2.09
0.84 0.91 0.93 0.98 0.94 0.83 0.80 0.90 0.86 0.79 0.74 0.71 0.74 0.78 0.83 0.80 0.92 0.99 1.04 1.09 1.08 1.04 1.02 1.15 1.40 1.63 1.90 2.14 2.42 2.58 2.85 2.95 2.94 2.76 2.66 2.67 2.56 2.43 2.50 2.61 2.77 2.78 2.84 3.04 3.16 3.07 3.17 2.95 2.50
0.90 0.63 0.61 0.73 1.06 1.13 0.86 1.05 0.85 0.73 0.82 0.80 0.77 0.76 0.76 0.77 0.82 0.88 0.97 1.05 1.05 0.97 0.95 1.04 1.23 1.53 1.96 2.27 2.45 2.66 3.00 3.10 2.95 2.83 2.70 2.70 2.70 2.68 2.80 2.77 2.83 2.85 2.87 2.97 3.13 3.13 3.34 3.46 3.03
0.68 0.56 0.58 0.67 0.92 1.00 0.78 0.82 0.77 0.70 0.79 0.79 0.71 0.67 0.67 0.65 0.66 0.75 0.81 0.84 0.91 0.99 1.01 1.07 1.30 1.64 2.03 2.18 2.37 2.68 2.84 2.94 3.02 2.88 2.78 2.74 2.78 2.81 2.88 2.92 3.02 2.99 2.97 2.88 3.08 3.19 3.34 3.29 3.25
0.52 0.67 0.76 0.78 0.96 1.02 0.59 0.67 0.79 0.65 0.54 0.59 0.63 0.61 0.58 0.54 0.54 0.66 0.81 0.87 0.96 1.04 1.13 1.25 1.43 1.69 2.02 2.20 2.40 2.49 2.63 2.79 2.86 2.88 2.79 2.73 2.76 2.85 2.73 2.67 2.84 2.89 2.90 2.84 2.97 3.10 3.28 3.29 3.33
0.59 1.00 1.39 1.37 1.34 1.01 0.50 0.62 0.75 0.52 0.41 0.47 0.53 0.55 0.54 0.56 0.63 0.76 0.93 1.10 1.20 1.28 1.30 1.42 1.58 1.83 2.02 2.13 2.24 2.27 2.30 2.40 2.37 2.51 2.57 2.69 2.67 2.70 2.72 2.62 2.64 2.69 2.62 2.58 2.68 2.72 2.80 2.95 3.14
0.52 0.78 1.28 1.41 1.17 0.87 0.65 0.85 0.81 0.52 0.44 0.48 0.51 0.54 0.58 0.68 0.79 0.96 1.15 1.38 1.48 1.59 1.60 1.60 1.68 1.82 1.92 1.98 2.03 2.13 2.14 2.16 2.10 2.08 2.08 2.24 2.39 2.43 2.48 2.52 2.47 2.52 2.55 2.48 2.56 2.56 2.57 2.62 2.68
0.55 0.62 0.67 0.90 0.79 0.79 0.75 0.83 0.83 0.62 0.55 0.54 0.57 0.63 0.72 0.92 1.06 1.23 1.41 1.52 1.53 1.65 1.70 1.68 1.71 1.74 1.78 1.90 1.96 1.89 1.88 1.91 1.91 1.88 1.92 1.95 1.99 2.00 2.04 2.10 2.23 2.35 2.40 2.42 2.52 2.56 2.51 2.44 2.44
0.49 0.66 0.86 1.18 1.29 1.11 0.88 0.95 0.97 0.81 0.68 0.61 0.67 0.79 0.97 1.22 1.40 1.59 1.78 1.75 1.71 1.76 1.91 1.86 1.78 1.76 1.81 1.88 1.92 1.84 1.84 1.85 1.82 1.71 1.75 1.71 1.65 1.65 1.73 1.81 1.96 2.23 2.36 2.39 2.44 2.50 2.51 2.48 2.40
0.53 0.71 0.92 1.23 1.30 1.44 1.46 1.46 1.12 0.90 0.88 0.96 1.04 1.15 1.35 1.59 1.77 1.92 2.06 2.04 1.88 1.79 1.82 1.81 1.76 1.75 1.72 1.79 1.91 1.87 1.82 1.82 1.80 1.68 1.60 1.61 1.59 1.57 1.64 1.68 1.80 1.93 2.15 2.36 2.50 2.48 2.42 2.40 2.35
0.62 0.85 1.09 1.61 1.52 1.34 1.55 1.68 1.21 1.01 1.04 1.07 1.10 1.26 1.48 1.59 1.68 1.76 1.81 1.94 1.82 1.74 1.67 1.69 1.67 1.55 1.59 1.65 1.77 1.88 1.80 1.75 1.73 1.63 1.68 1.60 1.51 1.50 1.49 1.58 1.77 1.88 1.95 2.04 2.12 2.16 2.19 2.21 2.23